Weather reports worldwide

Advertisment
Rotterdam Zestienhoven, Netherlands (6344): temperature & dewpoint: 29.05.2020 18:00:00 - 04.06.2020 18:00:00 (CEST)Rotterdam Zestienhoven, Netherlands (6344): temperature 5cm: 29.05.2020 18:00:00 - 04.06.2020 18:00:00 (CEST)Rotterdam Zestienhoven, Netherlands (6344): wind speed & gusts: 29.05.2020 18:00:00 - 04.06.2020 18:00:00 (CEST)Rotterdam Zestienhoven, Netherlands (6344): wind direction: 29.05.2020 18:00:00 - 04.06.2020 18:00:00 (CEST)Rotterdam Zestienhoven, Netherlands (6344): reduced air pressure: 29.05.2020 18:00:00 - 04.06.2020 18:00:00 (CEST)Rotterdam Zestienhoven, Netherlands (6344): visibility: 29.05.2020 18:00:00 - 04.06.2020 18:00:00 (CEST)Rotterdam Zestienhoven, Netherlands (6344): precipitation: 29.05.2020 18:00:00 - 04.06.2020 18:00:00 (CEST)
Date & Time tt [°C] td [°C] tt 5cm [°C] ff [km/h] ff [kn] fx [km/h] fx [kn] dd ppp [hPa] vv [km] rr [mm]
04.06.2020 18:00:00 13,0 9,0 12,0 18 10 - - WNW 998,1 10 -
04.06.2020 17:00:00 14,1 10,3 13,9 15 8 36 19 NW 998,1 10 0,0
04.06.2020 16:00:00 13,7 10,3 14,6 18 10 32 18 NNW 998,3 10 0,0
04.06.2020 15:00:00 14,7 9,8 15,0 18 10 36 19 NW 998,4 10 0,0
04.06.2020 14:00:00 12,7 9,9 13,6 24 13 40 21 NW 998,8 10 0,0
04.06.2020 13:00:00 13,8 10,6 14,9 18 10 36 19 NW 998,8 10 0,0
04.06.2020 12:00:00 15,4 10,5 16,2 21 11 32 18 WNW 998,4 10 0,0
04.06.2020 11:00:00 15,3 10,0 17,4 21 11 32 18 NW 998,6 10 0,0
04.06.2020 10:00:00 14,9 10,5 14,6 16 9 32 18 NNW 998,8 10 0,0
04.06.2020 09:00:00 14,0 10,2 14,1 18 10 29 16 NNW 999,0 10 0,0
04.06.2020 08:00:00 14,0 10,1 13,9 13 7 25 14 N 999,1 10 0,0
04.06.2020 07:00:00 13,7 9,6 13,4 13 7 25 14 N 999,5 10 0,0
04.06.2020 06:00:00 13,6 9,9 13,3 15 8 29 16 N 999,7 10 0,0
04.06.2020 05:00:00 13,7 10,6 13,4 16 9 29 16 N 999,9 10 0,0
04.06.2020 04:00:00 13,4 10,6 13,0 16 9 29 16 N 1000,2 10 0,0
04.06.2020 03:00:00 13,9 11,1 13,4 11 6 25 14 N 1000,9 10 0,0
04.06.2020 02:00:00 14,1 10,8 13,7 16 9 29 16 N 1001,2 10 0,0
04.06.2020 01:00:00 14,2 11,2 13,8 16 9 29 16 N 1001,9 10 0,0
04.06.2020 00:00:00 13,9 11,4 13,0 13 7 25 14 N 1002,6 10 0,0
03.06.2020 23:00:00 13,9 11,7 13,3 13 7 25 14 N 1003,1 10 0,0
03.06.2020 22:00:00 14,2 11,8 13,6 13 7 29 16 NNW 1003,2 10 0,0
03.06.2020 21:00:00 14,8 11,8 14,6 15 8 29 16 NNW 1003,4 10 0,0
03.06.2020 20:00:00 16,2 12,0 17,2 16 9 25 14 NNW 1003,5 10 0,0
03.06.2020 19:00:00 17,6 11,8 18,5 15 8 25 14 NNW 1003,7 10 0,0
03.06.2020 18:00:00 17,6 11,5 18,4 15 8 25 14 NW 1004,1 10 0,0
03.06.2020 17:00:00 19,5 10,6 22,3 16 9 25 14 WNW 1004,5 10 0,0
03.06.2020 16:00:00 20,9 11,0 23,7 15 8 22 12 W 1004,9 10 0,0
03.06.2020 15:00:00 20,0 10,6 22,3 13 7 25 14 NW 1005,2 10 0,0
03.06.2020 14:00:00 21,4 10,4 24,7 13 7 22 12 NW 1005,5 10 0,0
03.06.2020 13:00:00 21,2 9,4 23,6 13 7 22 12 NW 1006,0 10 0,0
03.06.2020 12:00:00 19,6 10,4 22,7 13 7 22 12 NW 1006,5 10 0,0
03.06.2020 11:00:00 19,2 11,0 22,4 9 5 18 10 WNW 1006,6 10 0,0
03.06.2020 10:00:00 17,3 12,8 19,7 11 6 22 12 W 1006,9 10 0,0
03.06.2020 09:00:00 16,0 12,9 16,8 11 6 22 12 W 1007,4 10 0,0
03.06.2020 08:00:00 14,1 12,8 14,3 11 6 18 10 W 1007,7 6 0,0
03.06.2020 07:00:00 12,9 12,3 12,9 11 6 18 10 W 1008,2 2,5 0,0
03.06.2020 06:00:00 13,0 12,5 12,7 11 6 18 10 W 1008,3 2,3 0,0
03.06.2020 05:00:00 12,2 12,0 10,9 8 4 18 10 W 1008,6 2,5 0,0
03.06.2020 04:00:00 12,4 12,2 10,0 9 5 14 8 WSW 1009,3 1,8 0,0
03.06.2020 03:00:00 12,4 12,2 10,2 8 4 11 6 W 1010,0 3,3 0,0
03.06.2020 02:00:00 12,0 11,4 9,7 8 4 11 6 WSW 1010,7 5 0,0
03.06.2020 01:00:00 12,4 11,9 9,6 4 2 11 6 W 1011,4 5 0,0
03.06.2020 00:00:00 14,1 13,0 13,2 8 4 14 8 W 1012,3 8 0,0
02.06.2020 23:00:00 14,3 12,8 13,2 9 5 14 8 W 1012,8 10 0,0
02.06.2020 22:00:00 15,9 12,1 14,7 9 5 14 8 W 1013,2 10 0,0
02.06.2020 21:00:00 17,9 12,9 17,8 9 5 14 8 W 1013,3 10 0,0
02.06.2020 20:00:00 19,7 12,1 19,9 9 5 18 10 W 1013,8 10 0,0
02.06.2020 19:00:00 21,3 9,8 22,7 13 7 22 12 W 1014,3 10 0,0
02.06.2020 18:00:00 22,6 9,8 24,5 15 8 22 12 W 1014,7 10 0,0
02.06.2020 17:00:00 23,9 10,0 26,4 11 6 22 12 NW 1015,2 10 0,0
02.06.2020 16:00:00 24,2 10,0 27,7 13 7 22 12 NW 1015,7 10 0,0
02.06.2020 15:00:00 25,3 10,3 27,8 13 7 22 12 NW 1016,0 10 0,0
02.06.2020 14:00:00 25,4 10,5 29,1 11 6 25 14 WNW 1016,5 10 0,0
02.06.2020 13:00:00 25,0 8,6 28,2 5 3 14 8 - 1017,0 10 0,0
02.06.2020 12:00:00 24,5 8,7 28,3 4 2 11 6 - 1017,5 10 0,0
02.06.2020 11:00:00 23,6 10,1 26,3 8 4 - - NNW 1017,9 10 0,0
02.06.2020 10:00:00 20,9 10,5 23,6 4 2 7 4 - 1018,4 10 0,0
02.06.2020 09:00:00 18,9 12,0 20,8 4 2 11 6 NE 1018,6 29 0,0
02.06.2020 08:00:00 17,0 11,8 17,4 5 3 11 6 NE 1018,9 10 0,0
02.06.2020 07:00:00 13,4 12,7 10,8 0 0 4 2 N 1019,1 10 0,0
02.06.2020 06:00:00 11,9 11,7 5,5 0 0 4 2 N 1019,1 10 0,0
02.06.2020 05:00:00 11,7 11,5 5,7 2 1 4 2 NNE 1019,3 10 0,0
02.06.2020 04:00:00 11,8 11,5 6,1 2 1 4 2 NNE 1019,4 10 0,0
02.06.2020 03:00:00 11,7 11,3 6,2 4 2 7 4 NE 1019,9 10 0,0
02.06.2020 02:00:00 13,1 12,0 7,3 5 3 7 4 NNE 1020,3 10 0,0
02.06.2020 01:00:00 14,1 10,9 10,6 5 3 14 8 NNW 1020,8 10 0,0
02.06.2020 00:00:00 16,9 10,7 14,3 9 5 14 8 NE 1020,8 10 0,0
01.06.2020 23:00:00 17,0 9,5 13,3 11 6 18 10 ENE 1020,7 10 0,0
01.06.2020 22:00:00 19,5 8,8 17,1 11 6 22 12 NE 1020,8 10 0,0
01.06.2020 21:00:00 21,4 7,9 20,6 13 7 22 12 NE 1020,5 10 0,0
01.06.2020 20:00:00 22,3 7,0 22,2 18 10 25 14 NE 1020,7 10 0,0
01.06.2020 19:00:00 23,2 6,4 23,5 15 8 22 12 NNE 1020,9 10 0,0
01.06.2020 18:00:00 22,0 6,3 22,2 16 9 25 14 N 1021,2 10 0,0
01.06.2020 17:00:00 21,7 6,5 22,2 16 9 29 16 N 1021,5 10 0,0
01.06.2020 16:00:00 22,8 7,8 24,8 16 9 29 16 ENE 1021,8 10 0,0
01.06.2020 15:00:00 24,2 9,5 26,2 18 10 32 18 NE 1022,0 10 0,0
01.06.2020 14:00:00 23,7 8,8 26,5 18 10 36 19 NE 1022,3 10 0,0
01.06.2020 13:00:00 23,1 8,8 26,3 15 8 29 16 NE 1022,7 10 0,0
01.06.2020 12:00:00 22,4 8,2 25,7 18 10 29 16 ENE 1022,9 10 0,0
01.06.2020 11:00:00 20,9 9,8 23,6 15 8 22 12 ENE 1023,1 10 0,0
01.06.2020 10:00:00 19,7 9,5 21,7 16 9 22 12 ENE 1023,4 10 0,0
01.06.2020 09:00:00 18,0 10,0 18,8 11 6 22 12 ENE 1023,3 10 0,0
01.06.2020 08:00:00 15,8 9,0 15,6 11 6 22 12 ENE 1023,2 10 0,0
01.06.2020 07:00:00 13,9 9,2 12,5 11 6 14 8 E 1023,2 10 0,0
01.06.2020 06:00:00 10,0 8,0 8,9 9 5 14 8 NE 1023,1 10 0,0
01.06.2020 05:00:00 11,0 8,5 9,7 11 6 14 8 NE 1023,0 10 0,0
01.06.2020 04:00:00 12,3 9,8 8,5 9 5 14 8 ENE 1023,0 10 0,0
01.06.2020 03:00:00 13,3 10,0 11,7 11 6 14 8 NE 1023,2 10 0,0
01.06.2020 02:00:00 13,1 9,8 10,6 9 5 14 8 NE 1023,0 10 0,0
01.06.2020 01:00:00 14,8 10,1 13,4 11 6 25 14 NE 1023,0 10 0,0
01.06.2020 00:00:00 15,6 10,5 14,7 15 8 25 14 NE 1023,0 10 0,0
31.05.2020 23:00:00 16,5 10,6 15,4 18 10 32 18 NE 1023,0 10 0,0
31.05.2020 22:00:00 17,5 10,0 16,5 18 10 29 16 NE 1022,6 10 0,0
31.05.2020 21:00:00 19,6 5,0 18,6 16 9 32 18 E 1021,9 10 0,0
31.05.2020 20:00:00 20,8 6,2 20,7 18 10 36 19 NE 1021,7 10 0,0
31.05.2020 19:00:00 21,7 5,2 22,3 18 10 32 18 ENE 1021,5 10 0,0
31.05.2020 18:00:00 21,8 5,2 22,9 24 13 43 23 ENE 1021,8 10 0,0
31.05.2020 17:00:00 22,6 5,9 23,6 21 11 43 23 E 1022,2 10 0,0
31.05.2020 16:00:00 21,7 5,5 24,1 21 11 43 23 NE 1022,5 10 0,0
31.05.2020 15:00:00 21,5 5,6 23,7 26 14 43 23 NE 1022,9 10 0,0
31.05.2020 14:00:00 20,4 4,3 23,6 28 15 43 23 ENE 1023,2 10 0,0
31.05.2020 13:00:00 21,0 4,2 22,7 28 15 47 25 ENE 1023,5 10 0,0
31.05.2020 12:00:00 19,8 3,9 22,2 26 14 43 23 E 1023,9 10 0,0
31.05.2020 11:00:00 19,7 4,3 21,6 24 13 40 21 ENE 1024,1 10 0,0
31.05.2020 10:00:00 18,9 5,8 20,8 16 9 29 16 E 1024,1 10 0,0
31.05.2020 09:00:00 17,0 6,4 18,2 15 8 29 16 ENE 1024,3 10 0,0
31.05.2020 08:00:00 16,0 7,7 15,9 13 7 22 12 ENE 1024,1 10 0,0
31.05.2020 07:00:00 12,9 9,2 11,1 9 5 14 8 ENE 1023,9 10 0,0
31.05.2020 06:00:00 11,6 9,0 5,7 8 4 11 6 NE 1023,6 10 0,0
31.05.2020 05:00:00 12,4 8,9 7,6 8 4 11 6 NE 1023,3 10 0,0
31.05.2020 04:00:00 11,8 8,2 8,8 11 6 14 8 ENE 1023,3 10 0,0
31.05.2020 03:00:00 11,4 8,1 8,6 11 6 18 10 ENE 1023,4 10 0,0
31.05.2020 02:00:00 11,9 8,9 10,4 15 8 18 10 ENE 1023,3 10 0,0
31.05.2020 01:00:00 14,5 9,7 12,3 11 6 18 10 NE 1023,3 10 0,0
31.05.2020 00:00:00 15,2 9,7 14,0 16 9 29 16 ENE 1023,1 10 0,0
30.05.2020 23:00:00 17,1 9,9 15,7 18 10 32 18 NE 1023,0 10 0,0
30.05.2020 22:00:00 18,0 8,2 17,1 22 12 36 19 NE 1022,5 10 0,0
30.05.2020 21:00:00 19,4 7,3 18,7 26 14 40 21 NE 1021,8 10 0,0
30.05.2020 20:00:00 21,3 5,1 21,2 28 15 36 19 NE 1021,7 10 0,0
30.05.2020 19:00:00 22,4 5,5 23,0 24 13 36 19 NE 1021,8 10 0,0
30.05.2020 18:00:00 23,0 5,6 24,6 22 12 32 18 NE 1022,2 10 0,0
30.05.2020 17:00:00 23,4 6,3 24,7 18 10 32 18 NE 1022,5 10 0,0
30.05.2020 16:00:00 23,3 4,3 26,1 13 7 32 18 NNE 1022,9 10 0,0
30.05.2020 15:00:00 23,0 3,5 26,4 16 9 36 19 E 1023,5 10 0,0
30.05.2020 14:00:00 22,4 3,4 25,7 16 9 32 18 E 1024,0 10 0,0
30.05.2020 13:00:00 22,2 4,8 24,9 24 13 36 19 E 1024,4 10 0,0
30.05.2020 12:00:00 21,7 3,8 24,1 18 10 36 19 E 1024,7 10 0,0
30.05.2020 11:00:00 20,8 5,2 23,4 16 9 29 16 E 1025,0 10 0,0
30.05.2020 10:00:00 19,2 6,6 21,1 15 8 22 12 E 1025,1 10 0,0
30.05.2020 09:00:00 17,0 7,7 18,5 11 6 18 10 E 1025,0 10 0,0
30.05.2020 08:00:00 14,5 7,4 14,6 11 6 18 10 E 1025,1 10 0,0
30.05.2020 07:00:00 11,5 8,0 10,7 5 3 14 8 NNE 1025,0 10 0,0
30.05.2020 06:00:00 10,0 7,3 5,2 5 3 11 6 ENE 1025,1 10 0,0
30.05.2020 05:00:00 8,6 6,3 5,9 5 3 14 8 NE 1025,2 10 0,0
30.05.2020 04:00:00 10,0 7,1 5,6 8 4 11 6 NE 1025,2 10 0,0
30.05.2020 03:00:00 10,2 7,4 8,3 13 7 14 8 ENE 1025,4 10 0,0
30.05.2020 02:00:00 11,4 7,9 10,0 15 8 22 12 ENE 1025,3 10 0,0
30.05.2020 01:00:00 13,6 9,0 12,5 15 8 29 16 NE 1025,4 10 0,0
30.05.2020 00:00:00 14,7 10,4 13,8 18 10 29 16 NE 1025,2 10 0,0
29.05.2020 23:00:00 15,7 10,8 14,6 21 11 32 18 NE 1025,1 10 0,0
29.05.2020 22:00:00 16,6 10,9 15,7 18 10 32 18 NE 1025,0 10 0,0
29.05.2020 21:00:00 18,4 7,9 17,7 16 9 32 18 NE 1024,7 10 0,0
29.05.2020 20:00:00 19,8 7,1 19,9 21 11 29 16 ENE 1024,9 10 0,0
29.05.2020 19:00:00 21,0 7,1 21,8 13 7 25 14 NE 1025,3 10 0,0
29.05.2020 18:00:00 21,4 7,8 23,0 9 5 29 16 NE 1025,6 10 0,0

tt = temperature
td = dewpoint
tt 5cm = temperature 5cm
ff = wind speed
fx = gusts
dd = wind direction
ppp = reduced air pressure
vv = visibility
rr = precipitation

Next stations